Home   Weather   Canvey Island   Past weeks

Flag for United Kingdom Past Weather in Canvey Island, England, United Kingdom — Yesterday and Last 2 Weeks

52 °F


Feels Like: 49 °F
Forecast: 49 / 63 °F
Wind: 8 mph from Southwest

Location: Southend Airport-On-Sea

Current Time: Oct 27, 2016 at 2:05:23 AM

Latest Report: Oct 27, 2016 at 12:50 AM

Visibility: 10 mi

Pressure: 30.42 "Hg

Humidity: 88%

Dew Point: 48 °F

Location of Canvey IslandLocation

Past Weather in Canvey Island — Graph


Canvey Island Temperature Yesterday

Maximum temperature yesterday: 63 °F (at 1:50 PM)
Minimum temperature yesterday: 48 °F (at 2:50 AM)
Average temperature yesterday: 55 °F

High & Low Weather Summary for the Past Weeks

High64 °F (Oct 16, 1:50 PM)94% (Oct 12, 6:20 AM)30.42 "Hg (Oct 12, 6:20 AM)
Low41 °F (Oct 23, 3:50 AM)44% (Oct 18, 3:50 PM)29.65 "Hg (Oct 14, 9:20 PM)
Average53 °F76%30.01 "Hg
* Reported Oct 12 1:20 AM — Oct 27 12:50 AM, Canvey Island, Weather by CustomWeather, © 2016

Note: Actual official high and low records may vary slightly from our data, if they occured in-between our weather recording intervals... More about our weather records


Canvey Island Weather History for the Previous 24 Hours

Scroll right to see more
Time TempWeatherWind HumidityBarometerVisibility
12:50 AM
Thu, Oct 27
52 °FClear.8 mph88%30.42 "Hg10 mi
11:50 PM
Wed, Oct 26
52 °FClear.8 mph88%30.42 "Hg10 mi
11:20 PM52 °FClear.8 mph82%30.42 "Hg10 mi
10:50 PM52 °FClear.8 mph88%30.42 "Hg10 mi
10:20 PM52 °FClear.9 mph88%30.42 "Hg10 mi
9:50 PM50 °FClear.7 mph88%30.42 "Hg10 mi
9:20 PM50 °FPassing clouds.7 mph88%30.42 "HgN/A
8:50 PM50 °FPassing clouds.7 mph88%30.42 "HgN/A
8:20 PM54 °FClear.6 mph82%30.39 "Hg10 mi
6:20 PM61 °FPassing clouds.6 mph68%30.39 "HgN/A
5:50 PM59 °FPassing clouds.6 mph68%30.36 "HgN/A
5:20 PM59 °FPassing clouds.8 mph68%30.36 "HgN/A
4:50 PM59 °FPassing clouds.12 mph68%30.36 "HgN/A
4:20 PM63 °FPassing clouds.9 mph64%30.33 "HgN/A
3:50 PM61 °FPassing clouds.13 mph63%30.36 "HgN/A
3:20 PM61 °FScattered clouds.9 mph63%30.36 "HgN/A
2:50 PM63 °FScattered clouds.12 mph64%30.33 "HgN/A
2:20 PM61 °FPassing clouds.12 mph63%30.36 "HgN/A
1:50 PM63 °FPassing clouds.12 mph64%30.36 "HgN/A
1:20 PM61 °FScattered clouds.14 mph63%30.36 "HgN/A
12:50 PM61 °FScattered clouds.15 mph68%30.36 "Hg5 mi
12:20 PM59 °FScattered clouds.13 mph72%30.36 "Hg5 mi
11:50 AM57 °FScattered clouds.8 mph77%30.36 "Hg5 mi
11:20 AM57 °FBroken clouds.6 mph77%30.36 "Hg4 mi
10:50 AM54 °FClear.6 mph88%30.36 "Hg4 mi
10:20 AM54 °FHaze.6 mph88%30.36 "Hg3 mi
9:50 AM54 °FHaze.6 mph88%30.36 "Hg3 mi
9:20 AM54 °FHaze.5 mph88%30.36 "Hg3 mi
8:50 AM54 °FPartly sunny.6 mph88%30.33 "Hg3 mi
8:20 AM54 °FPartly sunny.5 mph88%30.33 "Hg3 mi
7:50 AM54 °FPartly sunny.5 mph88%30.33 "Hg3 mi
7:20 AM54 °FFog.5 mph94%30.33 "Hg3 mi
6:50 AM54 °FPassing clouds.8 mph88%30.33 "Hg3 mi
6:20 AM52 °FFog.8 mph94%30.33 "Hg3 mi
5:50 AM54 °FPassing clouds.6 mph88%30.33 "Hg3 mi
5:20 AM50 °FPassing clouds.6 mph88%30.30 "Hg2 mi
4:50 AM50 °FPassing clouds.6 mph88%30.30 "Hg2 mi
3:50 AM50 °FPassing clouds.6 mph88%30.30 "Hg2 mi
2:50 AM48 °FFog.3 mph87%30.30 "Hg2 mi
Weather by CustomWeather, © 2016

See weather overviewHow to use our weather pages